Hourly Weather Armagh

Today, 5 July, Sunday

Time Temperature Precipitation Wind Pressure Humidity
00:00 +13°C° 0 mm 8 mps 743 mmHg 94%
01:00 +12°C° 0.1 mm 7 mps 744 mmHg 92%
02:00 +11°C° 0.1 mm 7 mps 745 mmHg 90%
03:00 +10°C° 0.1 mm 7 mps 746 mmHg 88%
04:00 +9°C° 0 mm 6 mps 746 mmHg 88%
05:00 +9°C° 0 mm 6 mps 747 mmHg 88%
06:00 +9°C° 0 mm 5 mps 747 mmHg 91%
07:00 +10°C° 0.2 mm 6 mps 747 mmHg 87%
08:00 +11°C° 0.2 mm 7 mps 748 mmHg 83%
09:00 +12°C° 0.2 mm 8 mps 748 mmHg 79%
10:00 +12°C° 0.3 mm 9 mps 748 mmHg 77%
11:00 +12°C° 0.3 mm 9 mps 747 mmHg 75%
12:00 +13°C° 0 mm 9 mps 747 mmHg 75%
13:00 +12°C° 0.3 mm 9 mps 748 mmHg 78%
14:00 +12°C° 0.3 mm 9 mps 748 mmHg 81%
15:00 +11°C° 0.3 mm 9 mps 748 mmHg 84%
16:00 +11°C° 0.2 mm 9 mps 748 mmHg 84%
17:00 +12°C° 0.2 mm 9 mps 749 mmHg 83%
18:00 +12°C° 0.2 mm 8 mps 749 mmHg 82%
19:00 +11°C° 0.1 mm 8 mps 750 mmHg 84%
20:00 +10°C° 0.1 mm 7 mps 751 mmHg 86%
21:00 +9°C° 0.1 mm 6 mps 752 mmHg 88%
22:00 +9°C° 0 mm 6 mps 753 mmHg 88%
23:00 +9°C° 0 mm 6 mps 753 mmHg 89%

Tomorrow, 6 July, Monday

Time Temperature Precipitation Wind Pressure Humidity
00:00 +8°C° 0 mm 6 mps 753 mmHg 89%
01:00 +9°C° 0 mm 6 mps 754 mmHg 88%
02:00 +9°C° 0 mm 6 mps 754 mmHg 86%
03:00 +10°C° 0 mm 6 mps 755 mmHg 85%
04:00 +10°C° 0 mm 6 mps 756 mmHg 86%
05:00 +10°C° 0 mm 6 mps 756 mmHg 88%
06:00 +10°C° 0 mm 5 mps 757 mmHg 90%
07:00 +12°C° 0 mm 5 mps 758 mmHg 83%
08:00 +11°C° 0 mm 6 mps 759 mmHg 77%
09:00 +13°C° 0 mm 6 mps 760 mmHg 71%
10:00 +14°C° 0 mm 6 mps 760 mmHg 70%
11:00 +15°C° 0 mm 5 mps 761 mmHg 68%
12:00 +15°C° 0 mm 5 mps 761 mmHg 66%
13:00 +15°C° 0 mm 5 mps 761 mmHg 66%
14:00 +16°C° 0 mm 5 mps 761 mmHg 66%
15:00 +16°C° 0 mm 5 mps 762 mmHg 65%
16:00 +17°C° 0.1 mm 4 mps 762 mmHg 68%
17:00 +15°C° 0.1 mm 4 mps 762 mmHg 72%
18:00 +16°C° 0.1 mm 3 mps 762 mmHg 75%
19:00 +13°C° 0 mm 3 mps 762 mmHg 80%
20:00 +13°C° 0 mm 2 mps 762 mmHg 84%
21:00 +10°C° 0 mm 2 mps 762 mmHg 89%
22:00 +9°C° 0 mm 2 mps 762 mmHg 91%
23:00 +9°C° 0 mm 2 mps 761 mmHg 92%

Day after tomorrow, 7 July, Tuesday

Time Temperature Precipitation Wind Pressure Humidity
00:00 +9°C° 0 mm 1 mps 761 mmHg 94%
01:00 +8°C° 0 mm 2 mps 760 mmHg 93%
02:00 +9°C° 0 mm 2 mps 760 mmHg 93%
03:00 +9°C° 0 mm 2 mps 760 mmHg 92%
04:00 +9°C° 0.5 mm 2 mps 759 mmHg 94%
05:00 +9°C° 0.5 mm 2 mps 758 mmHg 96%
06:00 +9°C° 0.5 mm 3 mps 758 mmHg 98%
07:00 +9°C° 0.8 mm 3 mps 757 mmHg 97%
08:00 +10°C° 0.8 mm 4 mps 756 mmHg 97%
09:00 +10°C° 0.8 mm 4 mps 756 mmHg 97%
10:00 +10°C° 0.7 mm 4 mps 755 mmHg 97%
11:00 +10°C° 0.7 mm 4 mps 755 mmHg 97%
12:00 +11°C° 0.7 mm 4 mps 754 mmHg 97%
13:00 +12°C° 0.4 mm 4 mps 754 mmHg 97%
14:00 +13°C° 0.4 mm 4 mps 754 mmHg 96%
15:00 +16°C° 0.4 mm 3 mps 754 mmHg 95%
16:00 +14°C° 0.2 mm 3 mps 754 mmHg 95%
17:00 +14°C° 0.2 mm 3 mps 754 mmHg 95%
18:00 +13°C° 0.2 mm 3 mps 754 mmHg 95%
19:00 +12°C° 0 mm 3 mps 755 mmHg 95%
20:00 +11°C° 0 mm 3 mps 755 mmHg 95%
21:00 +11°C° 0 mm 3 mps 756 mmHg 94%
22:00 +10°C° 0 mm 3 mps 756 mmHg 95%
23:00 +9°C° 0 mm 2 mps 757 mmHg 96%

8 July, Wednesday

Time Temperature Precipitation Wind Pressure Humidity
00:00 +8°C° 0 mm 2 mps 757 mmHg 97%
01:00 +8°C° 0 mm 2 mps 757 mmHg 97%
02:00 +8°C° 0 mm 2 mps 758 mmHg 97%
03:00 +9°C° 0 mm 1 mps 758 mmHg 97%
04:00 +9°C° 0 mm 1 mps 758 mmHg 97%
05:00 +10°C° 0 mm 1 mps 758 mmHg 96%
06:00 +10°C° 0 mm 1 mps 758 mmHg 95%
07:00 +12°C° 0 mm 1 mps 759 mmHg 90%
08:00 +13°C° 0 mm 1 mps 759 mmHg 84%
09:00 +14°C° 0 mm 0 mps 759 mmHg 78%
10:00 +15°C° 0 mm 1 mps 759 mmHg 77%
11:00 +16°C° 0 mm 1 mps 759 mmHg 75%
12:00 +16°C° 0 mm 2 mps 759 mmHg 73%
13:00 +15°C° 0.4 mm 2 mps 759 mmHg 81%
14:00 +14°C° 0.4 mm 2 mps 759 mmHg 88%
15:00 +13°C° 0.4 mm 2 mps 758 mmHg 95%
16:00 +11°C° 0.5 mm 3 mps 758 mmHg 96%
17:00 +11°C° 0.5 mm 3 mps 757 mmHg 97%
18:00 +11°C° 0.5 mm 3 mps 756 mmHg 97%
19:00 +11°C° 1.4 mm 4 mps 756 mmHg 97%
20:00 +12°C° 1.4 mm 4 mps 755 mmHg 98%
21:00 +12°C° 1.4 mm 4 mps 754 mmHg 98%
22:00 +13°C° 0.2 mm 5 mps 753 mmHg 97%
23:00 +14°C° 0.2 mm 5 mps 752 mmHg 97%

9 July, Thursday

Time Temperature Precipitation Wind Pressure Humidity
00:00 +15°C° 0.2 mm 6 mps 751 mmHg 96%
01:00 +15°C° 0.1 mm 6 mps 751 mmHg 96%
02:00 +15°C° 0.1 mm 6 mps 750 mmHg 96%
03:00 +15°C° 0.1 mm 6 mps 749 mmHg 96%
04:00 +15°C° 0.3 mm 6 mps 749 mmHg 96%
05:00 +15°C° 0.3 mm 6 mps 749 mmHg 96%
06:00 +15°C° 0.3 mm 6 mps 748 mmHg 96%
07:00 +15°C° 0.1 mm 6 mps 749 mmHg 95%
08:00 +14°C° 0.1 mm 7 mps 750 mmHg 94%
09:00 +14°C° 0.1 mm 7 mps 750 mmHg 93%
10:00 +14°C° 0.1 mm 7 mps 751 mmHg 88%
11:00 +13°C° 0.1 mm 8 mps 752 mmHg 83%
12:00 +13°C° 0.1 mm 8 mps 753 mmHg 78%
13:00 +13°C° 0 mm 8 mps 753 mmHg 74%
14:00 +15°C° 0 mm 8 mps 754 mmHg 70%
15:00 +15°C° 0 mm 8 mps 755 mmHg 66%
16:00 +14°C° 0 mm 7 mps 755 mmHg 68%
17:00 +14°C° 0 mm 7 mps 756 mmHg 70%
18:00 +13°C° 0 mm 6 mps 756 mmHg 72%
19:00 +11°C° 0 mm 6 mps 756 mmHg 75%
20:00 +10°C° 0 mm 5 mps 757 mmHg 78%
21:00 +9°C° 0 mm 5 mps 757 mmHg 81%
22:00 +8°C° 0 mm 5 mps 758 mmHg 84%
23:00 +8°C° 0 mm 4 mps 758 mmHg 87%

10 July, Friday

Time Temperature Precipitation Wind Pressure Humidity
00:00 +7°C° 0 mm 4 mps 758 mmHg 91%
01:00 +7°C° 0 mm 4 mps 758 mmHg 92%
02:00 +7°C° 0 mm 4 mps 758 mmHg 92%
03:00 +7°C° 0 mm 4 mps 758 mmHg 93%
04:00 +7°C° 0 mm 4 mps 759 mmHg 91%
05:00 +7°C° 0 mm 4 mps 759 mmHg 90%
06:00 +8°C° 0 mm 4 mps 759 mmHg 88%
07:00 +10°C° 0 mm 4 mps 760 mmHg 84%
08:00 +12°C° 0 mm 4 mps 760 mmHg 80%
09:00 +13°C° 0 mm 4 mps 760 mmHg 76%
10:00 +14°C° 0.2 mm 4 mps 761 mmHg 75%
11:00 +14°C° 0.2 mm 4 mps 761 mmHg 74%
12:00 +15°C° 0.2 mm 4 mps 761 mmHg 73%
13:00 +15°C° 0.2 mm 4 mps 761 mmHg 71%
14:00 +15°C° 0.2 mm 4 mps 762 mmHg 70%
15:00 +15°C° 0.2 mm 4 mps 762 mmHg 69%
16:00 +15°C° 0.1 mm 4 mps 762 mmHg 71%
17:00 +14°C° 0.1 mm 4 mps 762 mmHg 74%
18:00 +14°C° 0.1 mm 3 mps 762 mmHg 76%
19:00 +12°C° 0 mm 3 mps 762 mmHg 80%
20:00 +12°C° 0 mm 2 mps 763 mmHg 84%
21:00 +9°C° 0 mm 2 mps 763 mmHg 89%
22:00 +8°C° 0 mm 2 mps 763 mmHg 90%
23:00 +8°C° 0 mm 2 mps 763 mmHg 92%
Show more